Time,TemperatureF,DewpointF,PressureIn,WindDirection,WindDirectionDegrees,WindSpeedMPH,WindSpeedGustMPH,Humidity,HourlyPrecipIn,Conditions,Clouds,dailyrainin,SoftwareType,DateUTC
2013-02-19 00:02:00,45.0,-99.9,30.05,West,278,0.0,0.0,-999,0.00,,,0.00,,2013-02-19 07:02:00,
2013-02-19 00:12:00,45.0,-99.9,30.05,West,278,0.0,0.0,-999,0.00,,,0.00,,2013-02-19 07:12:00,
2013-02-19 00:22:00,43.0,-99.9,30.05,West,278,0.0,0.0,-999,0.00,,,0.00,,2013-02-19 07:22:00,
2013-02-19 00:32:00,43.0,-99.9,30.05,West,278,0.0,0.0,-999,0.00,,,0.00,,2013-02-19 07:32:00,
2013-02-19 00:42:00,43.0,-99.9,30.05,West,278,0.0,0.0,-999,0.00,,,0.00,,2013-02-19 07:42:00,
2013-02-19 00:52:00,43.0,-99.9,30.05,West,278,0.0,0.0,-999,0.00,,,0.00,,2013-02-19 07:52:00,
2013-02-19 01:02:00,42.0,-99.9,30.06,West,278,0.0,0.0,-999,0.00,,,0.00,,2013-02-19 08:02:00,
2013-02-19 01:11:00,42.0,-99.9,30.06,West,278,0.0,0.0,-999,0.00,,,0.00,,2013-02-19 08:11:00,
2013-02-19 01:22:00,42.0,-99.9,30.06,West,278,0.0,0.0,-999,0.00,,,0.00,,2013-02-19 08:22:00,
2013-02-19 01:32:00,42.0,-99.9,30.06,West,278,0.0,0.0,-999,0.00,,,0.00,,2013-02-19 08:32:00,
2013-02-19 01:42:00,42.0,-99.9,30.06,West,278,0.0,0.0,-999,0.00,,,0.00,,2013-02-19 08:42:00,
2013-02-19 01:52:00,42.0,-99.9,30.06,West,278,0.0,0.0,-999,0.00,,,0.00,,2013-02-19 08:52:00,
2013-02-19 02:02:00,41.0,-99.9,30.05,West,278,0.0,0.0,-999,0.00,,,0.00,,2013-02-19 09:02:00,
2013-02-19 02:11:00,41.0,-99.9,30.05,West,278,0.0,0.0,-999,0.00,,,0.00,,2013-02-19 09:11:00,
2013-02-19 02:22:00,40.0,-99.9,30.04,West,278,0.0,0.0,-999,0.00,,,0.00,,2013-02-19 09:22:00,
2013-02-19 02:32:00,40.0,-99.9,30.04,West,278,0.0,0.0,-999,0.00,,,0.00,,2013-02-19 09:32:00,
2013-02-19 02:42:00,40.0,-99.9,30.04,West,278,0.0,0.0,-999,0.00,,,0.00,,2013-02-19 09:42:00,
2013-02-19 02:53:00,39.0,-99.9,30.04,West,278,0.0,0.0,-999,0.00,,,0.00,,2013-02-19 09:53:00,
2013-02-19 03:02:00,38.0,-99.9,30.04,West,278,0.0,0.0,-999,0.00,,,0.00,,2013-02-19 10:02:00,
2013-02-19 03:11:00,38.0,-99.9,30.04,West,278,0.0,0.0,-999,0.00,,,0.00,,2013-02-19 10:11:00,
2013-02-19 03:22:00,38.0,-99.9,30.03,West,278,0.0,0.0,-999,0.00,,,0.00,,2013-02-19 10:22:00,
2013-02-19 03:32:00,38.0,-99.9,30.03,West,278,0.0,0.0,-999,0.00,,,0.00,,2013-02-19 10:32:00,
2013-02-19 03:42:00,38.0,-99.9,30.03,West,278,0.0,0.0,-999,0.00,,,0.00,,2013-02-19 10:42:00,
2013-02-19 03:52:00,38.0,-99.9,30.03,West,278,0.0,0.0,-999,0.00,,,0.00,,2013-02-19 10:52:00,
2013-02-19 04:01:00,39.0,-99.9,30.02,West,278,0.0,0.0,-999,0.00,,,0.00,,2013-02-19 11:01:00,
2013-02-19 04:12:00,39.0,-99.9,30.02,West,278,0.0,0.0,-999,0.00,,,0.00,,2013-02-19 11:12:00,
2013-02-19 04:22:00,39.0,-99.9,30.02,West,278,0.0,0.0,-999,0.00,,,0.00,,2013-02-19 11:22:00,
2013-02-19 04:32:00,37.0,-99.9,30.01,West,278,0.0,0.0,-999,0.00,,,0.00,,2013-02-19 11:32:00,
2013-02-19 04:42:00,37.0,-99.9,30.01,West,278,0.0,0.0,-999,0.00,,,0.00,,2013-02-19 11:42:00,
2013-02-19 04:52:00,37.0,-99.9,30.01,West,278,0.0,0.0,-999,0.00,,,0.00,,2013-02-19 11:52:00,
2013-02-19 05:02:00,37.0,-99.9,30.00,West,278,0.0,0.0,-999,0.00,,,0.00,,2013-02-19 12:02:00,
2013-02-19 05:12:00,37.0,-99.9,30.00,West,278,0.0,0.0,-999,0.00,,,0.00,,2013-02-19 12:12:00,
2013-02-19 05:22:00,37.0,-99.9,30.00,West,278,0.0,0.0,-999,0.00,,,0.00,,2013-02-19 12:22:00,
2013-02-19 05:33:00,36.0,-99.9,29.99,West,278,0.0,0.0,-999,0.00,,,0.00,,2013-02-19 12:33:00,
2013-02-19 05:42:00,36.0,-99.9,29.99,West,278,0.0,0.0,-999,0.00,,,0.00,,2013-02-19 12:42:00,
2013-02-19 05:53:00,37.0,-99.9,30.01,West,278,0.0,0.0,-999,0.00,,,0.00,,2013-02-19 12:53:00,
2013-02-19 06:02:00,37.0,-99.9,30.01,West,278,0.0,0.0,-999,0.00,,,0.00,,2013-02-19 13:02:00,
2013-02-19 06:11:00,37.0,-99.9,30.01,West,278,0.0,0.0,-999,0.00,,,0.00,,2013-02-19 13:11:00,
2013-02-19 06:22:00,36.0,-99.9,30.03,West,278,0.0,0.0,-999,0.00,,,0.00,,2013-02-19 13:22:00,
2013-02-19 06:32:00,37.0,-99.9,30.03,West,278,0.0,0.0,-999,0.00,,,0.00,,2013-02-19 13:32:00,
2013-02-19 06:42:00,37.0,-99.9,30.03,West,278,0.0,0.0,-999,0.00,,,0.00,,2013-02-19 13:42:00,
2013-02-19 06:52:00,37.0,-99.9,30.02,West,278,0.0,0.0,-999,0.00,,,0.00,,2013-02-19 13:52:00,
2013-02-19 07:02:00,37.0,-99.9,30.04,West,278,0.0,0.0,-999,0.00,,,0.00,,2013-02-19 14:02:00,
2013-02-19 07:12:00,37.0,-99.9,30.04,West,278,0.0,0.0,-999,0.00,,,0.00,,2013-02-19 14:12:00,
2013-02-19 07:22:00,36.0,-99.9,30.03,West,278,0.0,0.0,-999,0.00,,,0.00,,2013-02-19 14:22:00,
2013-02-19 07:33:00,37.0,-99.9,30.03,West,278,0.0,0.0,-999,0.00,,,0.00,,2013-02-19 14:33:00,
2013-02-19 07:42:00,37.0,-99.9,30.03,West,278,0.0,0.0,-999,0.00,,,0.00,,2013-02-19 14:42:00,
2013-02-19 07:52:00,37.0,-99.9,30.02,West,278,0.0,0.0,-999,0.00,,,0.00,,2013-02-19 14:52:00,
2013-02-19 08:02:00,37.0,-99.9,30.02,West,278,0.0,0.0,-999,0.00,,,0.00,,2013-02-19 15:02:00,
2013-02-19 08:11:00,37.0,-99.9,30.02,West,278,0.0,0.0,-999,0.00,,,0.00,,2013-02-19 15:11:00,
2013-02-19 08:22:00,38.0,-99.9,30.03,West,278,0.0,0.0,-999,0.00,,,0.00,,2013-02-19 15:22:00,
2013-02-19 08:32:00,40.0,-99.9,30.03,West,278,0.0,0.0,-999,0.00,,,0.00,,2013-02-19 15:32:00,
2013-02-19 08:42:00,40.0,-99.9,30.03,West,278,0.0,0.0,-999,0.00,,,0.00,,2013-02-19 15:42:00,
2013-02-19 08:52:00,43.0,-99.9,30.02,South,181,0.0,0.0,-999,0.00,,,0.00,,2013-02-19 15:52:00,
2013-02-19 09:02:00,46.0,-99.9,30.02,South,181,0.0,0.0,-999,0.00,,,0.00,,2013-02-19 16:02:00,
2013-02-19 09:12:00,46.0,-99.9,30.02,South,181,0.0,0.0,-999,0.00,,,0.00,,2013-02-19 16:12:00,
2013-02-19 09:22:00,47.0,-99.9,30.02,South,181,0.0,0.0,-999,0.00,,,0.00,,2013-02-19 16:22:00,
2013-02-19 09:32:00,49.0,-99.9,30.01,SSE,160,0.0,0.0,-999,0.00,,,0.00,,2013-02-19 16:32:00,
2013-02-19 09:42:00,49.0,-99.9,30.01,SSE,160,0.0,0.0,-999,0.00,,,0.00,,2013-02-19 16:42:00,
2013-02-19 09:52:00,51.0,-99.9,30.00,SSE,160,0.0,0.0,-999,0.00,,,0.00,,2013-02-19 16:52:00,
2013-02-19 10:01:00,54.0,-99.9,30.00,SSE,160,0.0,0.0,-999,0.00,,,0.00,,2013-02-19 17:01:00,
2013-02-19 10:11:00,54.0,-99.9,30.00,SSE,160,0.0,0.0,-999,0.00,,,0.00,,2013-02-19 17:11:00,
2013-02-19 10:21:00,56.0,-99.9,29.99,ESE,116,0.0,0.0,-999,0.00,,,0.00,,2013-02-19 17:21:00,
2013-02-19 10:32:00,60.0,-99.9,29.98,SSE,150,4.0,8.0,-999,0.00,,,0.00,,2013-02-19 17:32:00,
2013-02-19 10:42:00,60.0,-99.9,29.98,SE,125,0.0,3.0,-999,0.00,,,0.00,,2013-02-19 17:42:00,
2013-02-19 10:52:00,60.0,-99.9,29.98,SE,125,0.0,3.0,-999,0.00,,,0.00,,2013-02-19 17:52:00,
2013-02-19 11:02:00,60.0,-99.9,29.97,SW,226,4.0,8.0,-999,0.00,,,0.00,,2013-02-19 18:02:00,
2013-02-19 11:11:00,60.0,-99.9,29.97,SW,226,4.0,8.0,-999,0.00,,,0.00,,2013-02-19 18:11:00,
2013-02-19 11:22:00,59.0,-99.9,29.97,SSW,194,0.0,5.0,-999,0.00,,,0.00,,2013-02-19 18:22:00,
2013-02-19 11:32:00,60.0,-99.9,29.96,South,171,1.0,10.0,-999,0.00,,,0.00,,2013-02-19 18:32:00,
2013-02-19 11:42:00,60.0,-99.9,29.96,South,184,0.0,5.0,-999,0.00,,,0.00,,2013-02-19 18:42:00,
2013-02-19 11:52:00,60.0,-99.9,29.96,South,184,0.0,5.0,-999,0.00,,,0.00,,2013-02-19 18:52:00,
2013-02-19 12:01:00,61.0,-99.9,29.95,WSW,244,7.0,13.0,-999,0.00,,,0.00,,2013-02-19 19:01:00,
2013-02-19 12:11:00,61.0,-99.9,29.95,WSW,244,7.0,13.0,-999,0.00,,,0.00,,2013-02-19 19:11:00,
2013-02-19 12:22:00,63.0,-99.9,29.94,SW,232,11.0,25.0,-999,0.00,,,0.00,,2013-02-19 19:22:00,
2013-02-19 12:32:00,63.0,-99.9,29.93,SW,236,9.0,20.0,-999,0.00,,,0.00,,2013-02-19 19:32:00,
2013-02-19 12:42:00,63.0,-99.9,29.93,SW,236,9.0,20.0,-999,0.00,,,0.00,,2013-02-19 19:42:00,
2013-02-19 12:52:00,65.0,-99.9,29.93,SW,229,9.0,18.0,-999,0.00,,,0.00,,2013-02-19 19:52:00,
2013-02-19 13:02:00,65.0,-99.9,29.92,WSW,253,13.0,22.0,-999,0.00,,,0.00,,2013-02-19 20:02:00,
2013-02-19 13:12:00,65.0,-99.9,29.92,WSW,253,13.0,22.0,-999,0.00,,,0.00,,2013-02-19 20:12:00,
2013-02-19 13:22:00,64.0,-99.9,29.91,WSW,253,11.0,18.0,-999,0.00,,,0.00,,2013-02-19 20:22:00,
2013-02-19 13:32:00,64.0,-99.9,29.90,WSW,243,7.0,16.0,-999,0.00,,,0.00,,2013-02-19 20:32:00,
2013-02-19 13:42:00,64.0,-99.9,29.90,WSW,243,7.0,16.0,-999,0.00,,,0.00,,2013-02-19 20:42:00,
2013-02-19 13:52:00,64.0,-99.9,29.89,SW,225,11.0,22.0,-999,0.00,,,0.00,,2013-02-19 20:52:00,
2013-02-19 14:02:00,65.0,-99.9,29.89,WSW,237,12.0,23.0,-999,0.00,,,0.00,,2013-02-19 21:02:00,
2013-02-19 14:11:00,65.0,-99.9,29.89,WSW,237,12.0,23.0,-999,0.00,,,0.00,,2013-02-19 21:11:00,
2013-02-19 14:21:00,63.0,-99.9,29.88,SW,216,17.0,25.0,-999,0.00,,,0.00,,2013-02-19 21:21:00,
2013-02-19 14:32:00,63.0,-99.9,29.88,SW,233,7.0,17.0,-999,0.00,,,0.00,,2013-02-19 21:32:00,
2013-02-19 14:42:00,63.0,-99.9,29.88,SW,233,7.0,17.0,-999,0.00,,,0.00,,2013-02-19 21:42:00,
2013-02-19 14:52:00,64.0,-99.9,29.88,WSW,244,7.0,21.0,-999,0.00,,,0.00,,2013-02-19 21:52:00,
2013-02-19 15:02:00,63.0,-99.9,29.87,SW,225,12.0,24.0,-999,0.00,,,0.00,,2013-02-19 22:02:00,
2013-02-19 15:11:00,63.0,-99.9,29.87,SW,225,12.0,24.0,-999,0.00,,,0.00,,2013-02-19 22:11:00,
2013-02-19 15:22:00,64.0,-99.9,29.86,WSW,257,13.0,22.0,-999,0.00,,,0.00,,2013-02-19 22:22:00,
2013-02-19 15:32:00,64.0,-99.9,29.86,SW,223,7.0,16.0,-999,0.00,,,0.00,,2013-02-19 22:32:00,
2013-02-19 15:42:00,64.0,-99.9,29.86,SW,223,7.0,16.0,-999,0.00,,,0.00,,2013-02-19 22:42:00,
2013-02-19 15:52:00,64.0,-99.9,29.84,SW,226,5.0,9.0,-999,0.00,,,0.00,,2013-02-19 22:52:00,
2013-02-19 16:01:00,64.0,-99.9,29.84,WSW,244,8.0,9.0,-999,0.00,,,0.00,,2013-02-19 23:01:00,
2013-02-19 16:11:00,64.0,-99.9,29.84,WSW,244,8.0,9.0,-999,0.00,,,0.00,,2013-02-19 23:11:00,
2013-02-19 16:21:00,63.0,-99.9,29.84,SW,232,13.0,13.0,-999,0.00,,,0.00,,2013-02-19 23:21:00,
2013-02-19 16:32:00,63.0,-99.9,29.84,SW,226,8.0,19.0,-999,0.00,,,0.00,,2013-02-19 23:32:00,
2013-02-19 16:42:00,63.0,-99.9,29.84,SW,226,8.0,19.0,-999,0.00,,,0.00,,2013-02-19 23:42:00,
2013-02-19 16:52:00,63.0,-99.9,29.83,SW,233,6.0,18.0,-999,0.00,,,0.00,,2013-02-19 23:52:00,
2013-02-19 17:02:00,63.0,-99.9,29.83,South,191,8.0,20.0,-999,0.00,,,0.00,,2013-02-20 00:02:00,
2013-02-19 17:12:00,63.0,-99.9,29.83,South,191,8.0,20.0,-999,0.00,,,0.00,,2013-02-20 00:12:00,
2013-02-19 17:22:00,61.0,-99.9,29.83,SW,215,7.0,13.0,-999,0.00,,,0.00,,2013-02-20 00:22:00,
2013-02-19 17:32:00,62.0,-99.9,29.83,SW,236,2.0,10.0,-999,0.00,,,0.00,,2013-02-20 00:32:00,
2013-02-19 17:42:00,62.0,-99.9,29.83,SW,236,2.0,10.0,-999,0.00,,,0.00,,2013-02-20 00:42:00,
2013-02-19 17:52:00,62.0,-99.9,29.83,South,189,4.0,11.0,-999,0.00,,,0.00,,2013-02-20 00:52:00,
2013-02-19 18:02:00,60.0,-99.9,29.83,SW,215,4.0,12.0,-999,0.00,,,0.00,,2013-02-20 01:02:00,
2013-02-19 18:11:00,60.0,-99.9,29.83,SW,215,4.0,12.0,-999,0.00,,,0.00,,2013-02-20 01:11:00,
2013-02-19 18:22:00,59.0,-99.9,29.83,SSW,210,3.0,8.0,-999,0.00,,,0.00,,2013-02-20 01:22:00,
2013-02-19 18:32:00,58.0,-99.9,29.83,South,180,0.0,6.0,-999,0.00,,,0.00,,2013-02-20 01:32:00,
2013-02-19 18:42:00,58.0,-99.9,29.83,South,180,0.0,6.0,-999,0.00,,,0.00,,2013-02-20 01:42:00,
2013-02-19 18:52:00,57.0,-99.9,29.84,SSE,165,0.0,6.0,-999,0.00,,,0.00,,2013-02-20 01:52:00,
2013-02-19 19:02:00,57.0,-99.9,29.84,SW,216,1.0,5.0,-999,0.00,,,0.00,,2013-02-20 02:02:00,
2013-02-19 19:11:00,57.0,-99.9,29.84,SW,216,1.0,5.0,-999,0.00,,,0.00,,2013-02-20 02:11:00,
2013-02-19 19:22:00,56.0,-99.9,29.83,SSE,164,0.0,3.0,-999,0.00,,,0.00,,2013-02-20 02:22:00,
2013-02-19 19:32:00,56.0,-99.9,29.83,South,174,0.0,0.0,-999,0.00,,,0.00,,2013-02-20 02:32:00,
2013-02-19 19:42:00,56.0,-99.9,29.83,South,174,0.0,0.0,-999,0.00,,,0.00,,2013-02-20 02:42:00,
2013-02-19 19:52:00,55.0,-99.9,29.83,South,171,0.0,3.0,-999,0.00,,,0.00,,2013-02-20 02:52:00,
2013-02-19 20:02:00,54.0,-99.9,29.83,ESE,112,1.0,3.0,-999,0.00,,,0.00,,2013-02-20 03:02:00,
2013-02-19 20:12:00,54.0,-99.9,29.83,ESE,112,1.0,3.0,-999,0.00,,,0.00,,2013-02-20 03:12:00,
2013-02-19 20:22:00,53.0,-99.9,29.83,SE,142,0.0,4.0,-999,0.00,,,0.00,,2013-02-20 03:22:00,
2013-02-19 20:32:00,53.0,-99.9,29.83,SE,129,1.0,5.0,-999,0.00,,,0.00,,2013-02-20 03:32:00,
2013-02-19 20:42:00,53.0,-99.9,29.83,SE,129,1.0,5.0,-999,0.00,,,0.00,,2013-02-20 03:42:00,
2013-02-19 20:52:00,53.0,-99.9,29.83,SSE,168,6.0,8.0,-999,0.00,,,0.00,,2013-02-20 03:52:00,
2013-02-19 21:02:00,52.0,-99.9,29.82,ESE,119,5.0,8.0,-999,0.00,,,0.00,,2013-02-20 04:02:00,
2013-02-19 21:11:00,52.0,-99.9,29.82,ESE,119,5.0,8.0,-999,0.00,,,0.00,,2013-02-20 04:11:00,
2013-02-19 21:22:00,52.0,-99.9,29.82,SE,146,5.0,9.0,-999,0.00,,,0.00,,2013-02-20 04:22:00,
2013-02-19 21:32:00,52.0,-99.9,29.82,SE,146,5.0,9.0,-999,0.00,,,0.00,,2013-02-20 04:32:00,
2013-02-19 21:42:00,52.0,-99.9,29.82,SE,146,5.0,9.0,-999,0.00,,,0.00,,2013-02-20 04:42:00,
2013-02-19 21:52:00,52.0,-99.9,29.82,East,90,7.0,11.0,-999,0.00,,,0.00,,2013-02-20 04:52:00,
2013-02-19 22:02:00,52.0,-99.9,29.82,ENE,70,3.0,10.0,-999,0.00,,,0.00,,2013-02-20 05:02:00,
2013-02-19 22:12:00,52.0,-99.9,29.82,ENE,70,3.0,10.0,-999,0.00,,,0.00,,2013-02-20 05:12:00,
2013-02-19 22:22:00,52.0,-99.9,29.82,South,178,1.0,8.0,-999,0.00,,,0.00,,2013-02-20 05:22:00,
2013-02-19 22:32:00,52.0,-99.9,29.82,SSE,163,1.0,7.0,-999,0.00,,,0.00,,2013-02-20 05:32:00,
2013-02-19 22:43:00,52.0,-99.9,29.82,SSE,163,1.0,7.0,-999,0.00,,,0.00,,2013-02-20 05:43:00,
2013-02-19 22:52:00,52.0,-99.9,29.83,SSW,205,0.0,4.0,-999,0.00,,,0.00,,2013-02-20 05:52:00,
2013-02-19 23:02:00,52.0,-99.9,29.83,South,170,0.0,0.0,-999,0.00,,,0.00,,2013-02-20 06:02:00,
2013-02-19 23:11:00,51.0,-99.9,29.82,South,172,3.0,3.0,-999,0.00,,,0.00,,2013-02-20 06:11:00,
2013-02-19 23:22:00,51.0,-99.9,29.82,South,172,3.0,3.0,-999,0.00,,,0.00,,2013-02-20 06:22:00,
2013-02-19 23:32:00,51.0,-99.9,29.81,SSE,151,5.0,7.0,-999,0.00,,,0.00,,2013-02-20 06:32:00,
2013-02-19 23:42:00,51.0,-99.9,29.81,SSE,151,5.0,7.0,-999,0.00,,,0.00,,2013-02-20 06:42:00,
2013-02-19 23:52:00,51.0,-99.9,29.81,South,188,6.0,6.0,-999,0.00,,,0.00,,2013-02-20 06:52:00,